Location: Newark
(45.5000°N, 11.4167°E)
Time: 09:48:18
(UTC+00:00)

Vanguard 2 Rocket - All Passes

Search period start: 20 August 2019 00:00
Search period end: 30 August 2019 00:00
Orbit: 553 x 3327 km, 32.9° (Epoch: 19 August)

Date Brightness Start Highest point End Pass type
(mag) Time Alt. Az. Time Alt. Az. Time Alt. Az.
20 Aug - 01:36:16 10° SSW 01:47:14 31° SE 02:02:23 10° E visible
20 Aug - 03:47:18 10° SW 04:02:08 52° SSE 04:21:15 10° E visible
20 Aug - 06:01:27 10° W 06:19:02 54° S 06:37:33 10° ESE daylight
20 Aug - 08:18:12 10° W 08:35:21 37° SSW 08:50:30 10° SSE daylight
20 Aug - 10:41:01 10° WSW 10:49:09 14° SW 10:56:28 10° SSW daylight
21 Aug - 00:38:38 10° S 00:47:16 22° SE 00:58:52 10° E visible
21 Aug - 02:47:55 10° SW 03:00:57 46° SSE 03:19:07 10° E visible
21 Aug - 05:00:57 10° WSW 05:17:14 55° S 05:36:31 10° ESE daylight
21 Aug - 07:16:29 10° W 07:34:03 44° SSW 07:50:59 10° SE daylight
21 Aug - 09:35:49 10° W 09:48:57 22° SW 10:00:31 10° S daylight
21 Aug - 23:42:46 10° SSE 23:47:47 14° SE 23:53:47 10° ESE visible
22 Aug - 01:49:05 10° SSW 02:00:16 38° SSE 02:16:33 10° E visible
22 Aug - 04:00:56 10° WSW 04:15:37 54° S 04:34:56 10° ESE daylight
22 Aug - 06:15:23 10° W 06:32:28 49° SSW 06:50:46 10° SE daylight
22 Aug - 08:32:43 10° W 08:48:18 30° SW 09:02:34 10° SSE daylight
23 Aug - 00:50:52 10° SSW 01:00:08 29° SE 01:13:33 10° E visible
23 Aug - 03:01:24 10° SW 03:14:21 50° SSE 03:32:53 10° E visible
23 Aug - 05:14:49 10° WSW 05:30:48 53° S 05:49:55 10° ESE daylight
23 Aug - 07:30:43 10° W 07:47:13 37° SSW 08:03:32 10° SSE daylight
23 Aug - 09:52:36 10° WSW 10:01:36 15° SW 10:10:01 10° SSW daylight
23 Aug - 23:53:34 10° S 00:00:31 20° SE 00:09:55 10° E visible
24 Aug - 02:02:20 10° SW 02:13:32 44° SSE 02:30:27 10° E visible
24 Aug - 04:14:45 10° WSW 04:29:12 54° S 04:48:28 10° ESE daylight
24 Aug - 06:29:29 10° W 06:45:50 43° SSW 07:03:39 10° SE daylight
24 Aug - 08:47:58 10° W 09:01:08 22° SW 09:13:39 10° S daylight
24 Aug - 22:59:01 10° SE 23:01:20 11° SE 23:03:53 10° ESE visible
25 Aug - 01:03:46 10° SSW 01:13:14 35° SSE 01:27:44 10° E visible
25 Aug - 03:15:07 10° WSW 03:27:53 52° S 03:46:31 10° ESE visible
25 Aug - 05:28:50 10° W 05:44:17 48° SSW 06:03:02 10° SE daylight
25 Aug - 07:45:20 10° W 08:00:16 30° SW 08:15:22 10° SSE daylight
26 Aug - 00:05:50 10° SSW 00:13:28 26° SE 00:24:42 10° E visible
26 Aug - 02:15:54 10° SW 02:26:59 48° SSE 02:44:12 10° E visible
26 Aug - 04:28:41 10° WSW 04:42:48 51° S 05:01:46 10° ESE daylight
26 Aug - 06:43:48 10° W 06:59:05 36° SSW 07:15:59 10° SSE daylight
26 Aug - 09:04:54 10° WSW 09:13:55 15° SW 09:22:47 10° SSW daylight
26 Aug - 23:08:53 10° S 23:14:09 17° SE 23:21:04 10° E visible
27 Aug - 01:17:07 10° SW 01:26:33 41° SSE 01:41:38 10° E visible
27 Aug - 03:28:59 10° WSW 03:41:31 52° S 03:59:59 10° ESE visible
27 Aug - 05:43:00 10° W 05:57:45 42° SSW 06:15:43 10° SE daylight
27 Aug - 08:00:43 10° W 08:13:14 22° SW 08:26:09 10° S daylight
28 Aug - 00:18:47 10° SSW 00:26:39 32° SSE 00:38:56 10° E visible
28 Aug - 02:29:40 10° WSW 02:40:35 50° S 02:57:48 10° ESE visible
28 Aug - 04:42:46 10° W 04:56:23 46° SSW 05:14:46 10° SE daylight
28 Aug - 06:58:32 10° W 07:12:17 28° SW 07:27:34 10° SSE daylight
28 Aug - 23:21:04 10° S 23:27:12 23° SE 23:36:03 10° E visible
29 Aug - 01:30:44 10° SW 01:40:05 45° SSE 01:55:22 10° ESE visible
29 Aug - 03:42:59 10° WSW 03:55:11 48° S 04:13:12 10° ESE visible
29 Aug - 05:57:25 10° W 06:11:09 34° SSW 06:27:52 10° SSE daylight
29 Aug - 08:18:00 10° WSW 08:26:13 14° SW 08:34:43 10° SSW daylight
29 Aug - 22:24:40 10° SSE 22:28:09 13° SE 22:32:22 10° ESE visible
